[[{"header":{"parameterUnit":"m.s-1","parameterCategory":1,"la1":30.2991,"la2":30.254,"lo1":-89.0895,"lo2":-89.0444,"dy":0.0017,"dx":0.0017,"nx":28,"ny":28,"refTime":"2023-08-03T03:00:00:Z","depth":0,"parameterNumber":2,"parameterNumberName":"U-component_of_WINDS"},"data":[0,0,0,0,0,0,0,0,0,0,0,0,0,0,0,0,0,0,0,0,0,0,0,0,0,0,0,0,0,0,0,0,0,0,0,0,0,0,0,0,0,0,0,0,0,0,0,0,0,0,0,0,0,0,0,0,0,0,0.7583,0.7583,0,0.7623,0.7623,0.7623,0.7642,0.7642,0.7642,0.7642,0.7681,0.7682,0.7683,0,0,0,0,0,0,0,0,0,0,0,0,0,0.7519,0.752,0.7582,0.7583,0.7583,0.7622,0.7623,0.7624,0.7642,0.7642,0.7642,0.7642,0.7681,0.7682,0.7683,0,0,0,0,0,0,0,0,0,0,0,0,0,0.7552,0.7521,0.7582,0.7597,0.7599,0.7622,0.7623,0.7624,0.7642,0.7642,0.7642,0.7642,0.7681,0.7682,0.7684,0.7694,0,0,0.7689,0.7689,0,0,0,0,0,0,0,0,0.755,0.7554,0.7595,0.7596,0.7598,0.7627,0.7615,0.7647,0.7642,0.7626,0.7642,0.7642,0.7663,0.7666,0.7674,0.7696,0.7698,0.7689,0.769,0.769,0.7691,0,0,0,0,0,0,0,0.7548,0.7552,0.7598,0.7595,0.7598,0.7601,0.7606,0.7621,0.7644,0.7627,0.7629,0.7633,0.7664,0.7672,0.7675,0.7699,0.7689,0.769,0.7691,0.7692,0.773,0.773,0,0,0,0,0,0,0.7543,0.755,0.7597,0.7599,0.7574,0.7602,0.7608,0.7618,0.7644,0.7648,0.7633,0.7634,0.7669,0.7673,0.7676,0.769,0.769,0.7692,0.7693,0.773,0.773,0.773,0,0,0,0,0,0,0.7542,0.7547,0.7595,0.7575,0.7582,0.7604,0.7615,0.7619,0.7627,0.7649,0.7653,0.7637,0.767,0.7674,0.769,0.7692,0.7693,0.7694,0.773,0.773,0.773,0.7718,0,0,0,0,0,0,0.754,0.7547,0.7552,0.7575,0.7583,0.7609,0.7615,0.762,0.763,0.7631,0.7654,0.7657,0.767,0.7687,0.7691,0.7694,0.7695,0.773,0.773,0.773,0.7718,0.7717,0.7717,0,0,0,0,0,0.7538,0.7546,0.7552,0.7557,0.759,0.7609,0.7613,0.7628,0.763,0.7635,0.7648,0.7656,0.7691,0.7689,0.7693,0.7696,0.773,0.773,0.773,0.7718,0.7717,0.7717,0,0,0,0,0,0,0.7522,0.755,0.7556,0.7573,0.7588,0.7612,0.7619,0.7627,0.7642,0.7642,0.7659,0.7664,0.7678,0.7689,0.7686,0.7707,0.7711,0.7712,0.77,0.7699,0.7699,0.7696,0.7697,0,0,0,0,0,0.7521,0.7535,0.7558,0.757,0.7578,0.7597,0.7606,0.7616,0.7632,0.7639,0.7654,0.7669,0.7683,0.7692,0.7706,0.7719,0.7724,0.7724,0.7723,0.7722,0.7723,0.773,0.773,0.7731,0.7731,0.7731,0,0,0.7518,0.7535,0.7542,0.7568,0.7581,0.7594,0.7602,0.7616,0.7626,0.7641,0.7656,0.7667,0.7685,0.77,0.7707,0.7709,0.7724,0.7723,0.7722,0.7723,0.773,0.773,0.773,0.7731,0.7731,0.7731,0,0,0.7519,0.7534,0.7545,0.7558,0.7578,0.759,0.7593,0.7615,0.7623,0.7639,0.765,0.7662,0.7686,0.7698,0.7707,0.7711,0.7719,0.7715,0.7712,0.7719,0.7719,0.7719,0.772,0.772,0.7716,0.7716,0.7716,0,0.7513,0.7534,0.755,0.7563,0.7574,0.7588,0.7599,0.761,0.7634,0.764,0.7642,0.7672,0.7685,0.7702,0.7703,0.771,0.7713,0.7713,0.7717,0.7718,0.7718,0.7719,0.7719,0.7716,0.7716,0.7716,0.7716,0,0.7525,0.754,0.7546,0.7569,0.758,0.7592,0.7608,0.7617,0.7626,0.7638,0.7653,0.7669,0.7686,0.7691,0.77,0.7709,0.7709,0.7714,0.7718,0.7717,0.7718,0.7719,0.7715,0.7715,0.7715,0.7715,0,0,0.7519,0.7549,0.7551,0.7561,0.7583,0.7594,0.7606,0.7623,0.763,0.7645,0.7655,0.7675,0.7679,0.769,0.7699,0.7705,0.7707,0.7709,0.771,0.7708,0.7717,0.7713,0.7713,0.7712,0.7712,0.7712,0.7715,0,0.7523,0.7547,0.7561,0.7578,0.759,0.7603,0.7613,0.7627,0.7638,0.765,0.7662,0.7675,0.768,0.7686,0.7693,0.7705,0.7709,0.7705,0.7721,0.7721,0.7716,0.7714,0.771,0.7712,0.7716,0.7716,0.7716,0,0.7532,0.7547,0.7565,0.7585,0.7591,0.76,0.7616,0.7627,0.7643,0.765,0.7661,0.7671,0.7683,0.7686,0.7702,0.7699,0.7706,0.7713,0.7714,0.7716,0.7718,0.7715,0.7713,0.7713,0.7717,0.7717,0.7717,0,0.7525,0.7549,0.7563,0.7571,0.7595,0.7601,0.7611,0.7626,0.7635,0.7649,0.7655,0.767,0.7678,0.7689,0.7702,0.7702,0.7716,0.772,0.7722,0.7722,0.7725,0.7724,0.7723,0.7729,0.7729,0.7729,0.7729,0,0.7528,0.7539,0.756,0.7569,0.7581,0.7596,0.7607,0.7618,0.7631,0.7641,0.7653,0.7662,0.7679,0.769,0.77,0.7711,0.7715,0.7721,0.7723,0.772,0.7719,0.7724,0.7725,0.7729,0.7729,0.7729,0.7729,0,0.7523,0.7538,0.7553,0.7574,0.758,0.7587,0.7604,0.7613,0.7624,0.7636,0.764,0.7657,0.767,0.7684,0.7702,0.7709,0.772,0.7724,0.7715,0.7716,0.7717,0.7717,0.7719,0.772,0.7726,0.7726,0.7726,0,0.7524,0.7532,0.7554,0.7561,0.7571,0.7584,0.7593,0.7607,0.7616,0.7634,0.764,0.7654,0.7666,0.7686,0.77,0.7713,0.7717,0.7717,0.7719,0.7715,0.7717,0.7716,0.7717,0.7717,0.7717,0.7716,0.7716,0,0.7524,0.7531,0.7544,0.7559,0.757,0.7582,0.7595,0.7601,0.7618,0.7627,0.7641,0.765,0.7668,0.7681,0.7696,0.7706,0.7713,0.7715,0.7717,0.7713,0.7707,0.771,0.7713,0.7715,0.7716,0.7716,0.7716,0.7716,0.7522,0.7529,0.7546,0.7559,0.757,0.7582,0.759,0.7602,0.7614,0.763,0.7638,0.7651,0.7665,0.7686,0.7695,0.7706,0.7708,0.771,0.771,0.771,0.7709,0.7705,0.7708,0.7708,0.7708,0.7708,0.7708,0,0.7522,0.7533,0.7545,0.7563,0.7574,0.758,0.7594,0.7603,0.7614,0.7627,0.7639,0.7654,0.7667,0.7681,0.7694,0.77,0.7703,0.7703,0.7702,0.7704,0.7706,0.7704,0.7699,0.7699,0.7699,0.7699,0.7699,0.7699,0.7524,0.7537,0.7545,0.7563,0.7574,0.7587,0.7595,0.7605,0.7615,0.7632,0.7642,0.7652,0.7665,0.7679,0.7691,0.7695,0.7699,0.7697,0.7701,0.7703,0.7704,0.7705,0.7703,0.7698,0.7698,0.7698,0.7698,0.7698]},{"header":{"parameterUnit":"m.s-1","parameterCategory":1,"la1":30.2991,"la2":30.254,"lo1":-89.0895,"lo2":-89.0444,"dy":0.0017,"dx":0.0017,"nx":28,"ny":28,"refTime":"2023-08-03T03:00:00:Z","depth":0,"parameterNumber":3,"parameterNumberName":"V-component_of_WINDS"},"data":[0,0,0,0,0,0,0,0,0,0,0,0,0,0,0,0,0,0,0,0,0,0,0,0,0,0,0,0,0,0,0,0,0,0,0,0,0,0,0,0,0,0,0,0,0,0,0,0,0,0,0,0,0,0,0,0,0,0,4.6321,4.6321,0,4.6321,4.6321,4.6321,4.6255,4.6253,4.6251,4.625,4.6249,4.625,4.6252,0,0,0,0,0,0,0,0,0,0,0,0,0,4.6264,4.6265,4.6321,4.6321,4.6321,4.6321,4.6321,4.6321,4.6255,4.6253,4.6251,4.6249,4.6248,4.625,4.6252,0,0,0,0,0,0,0,0,0,0,0,0,0,4.6279,4.6266,4.6321,4.6288,4.6285,4.6321,4.6321,4.6321,4.6255,4.6253,4.625,4.6248,4.6248,4.625,4.6252,4.6319,0,0,4.626,4.6261,0,0,0,0,0,0,0,0,4.6278,4.6281,4.6293,4.6291,4.6287,4.6285,4.63,4.632,4.6256,4.6267,4.6249,4.6246,4.6263,4.6264,4.627,4.6319,4.6319,4.626,4.6261,4.6262,4.6263,0,0,0,0,0,0,0,4.6277,4.628,4.6321,4.6294,4.629,4.6273,4.6272,4.6304,4.628,4.6266,4.6261,4.6262,4.6261,4.6267,4.6269,4.6319,4.626,4.6262,4.6263,4.6264,4.6422,4.6425,0,0,0,0,0,0,4.6281,4.628,4.6321,4.6321,4.6276,4.6276,4.6276,4.6289,4.6279,4.6275,4.6264,4.6259,4.6265,4.6266,4.6269,4.6345,4.6262,4.6265,4.6266,4.6419,4.6423,4.6426,0,0,0,0,0,0,4.628,4.6285,4.6321,4.6299,4.6303,4.628,4.6295,4.629,4.6296,4.6278,4.6273,4.6275,4.6263,4.6265,4.6307,4.6344,4.6266,4.6268,4.6416,4.6421,4.6424,4.6499,0,0,0,0,0,0,4.6278,4.6285,4.631,4.63,4.6304,4.636,4.6298,4.6292,4.6301,4.6294,4.6287,4.6283,4.6261,4.6304,4.6309,4.6346,4.627,4.6413,4.6418,4.6423,4.6493,4.6505,4.6516,0,0,0,0,0,4.6276,4.6332,4.6312,4.6317,4.6336,4.6362,4.6364,4.6337,4.6304,4.6329,4.6317,4.6284,4.634,4.6309,4.6314,4.6352,4.641,4.6417,4.6423,4.6488,4.6503,4.6515,0,0,0,0,0,0,4.6347,4.633,4.6308,4.6362,4.6364,4.6351,4.6382,4.6354,4.6365,4.6358,4.6325,4.6324,4.637,4.6366,4.6331,4.6416,4.6369,4.6377,4.6417,4.6431,4.6442,4.6441,4.6272,0,0,0,0,0,4.6369,4.6392,4.6376,4.6425,4.6427,4.6405,4.6415,4.6394,4.6395,4.6395,4.6386,4.6388,4.6406,4.6418,4.6434,4.6493,4.6489,4.6522,4.6533,4.6542,4.6549,4.6578,4.6591,4.6446,4.6446,4.6446,0,0,4.6414,4.6407,4.6424,4.6439,4.6438,4.6462,4.6406,4.6434,4.6451,4.64,4.6437,4.6431,4.6431,4.6481,4.6503,4.6479,4.6588,4.655,4.6558,4.6559,4.6586,4.6599,4.6611,4.645,4.645,4.6449,0,0,4.6508,4.6506,4.6546,4.6546,4.6546,4.653,4.654,4.6531,4.6525,4.6563,4.6524,4.6544,4.6576,4.6577,4.6582,4.6676,4.6645,4.6682,4.674,4.6769,4.678,4.679,4.6822,4.6834,4.6689,4.6689,4.6689,0,4.6564,4.6599,4.657,4.66,4.6607,4.6562,4.6601,4.6603,4.6608,4.6613,4.6587,4.6625,4.6622,4.667,4.6693,4.67,4.6708,4.6682,4.6781,4.6791,4.6799,4.6829,4.6842,4.6694,4.6693,4.6693,4.6692,0,4.6667,4.6692,4.6724,4.6729,4.674,4.6775,4.675,4.6765,4.6743,4.6731,4.6769,4.6764,4.6777,4.6787,4.6767,4.6833,4.6818,4.6787,4.6739,4.6818,4.6845,4.6857,4.67,4.6698,4.6697,4.6696,0,0,4.6804,4.6792,4.6804,4.6805,4.6802,4.682,4.6853,4.6865,4.6877,4.6883,4.6908,4.6936,4.6907,4.6912,4.6892,4.6917,4.699,4.6883,4.6882,4.6901,4.7061,4.7083,4.7096,4.6971,4.6973,4.6974,4.706,0,4.6893,4.6948,4.6922,4.698,4.7001,4.6959,4.6987,4.6987,4.6977,4.6993,4.6981,4.7001,4.6962,4.6965,4.6989,4.6976,4.7021,4.697,4.6993,4.6994,4.6992,4.7111,4.7134,4.7215,4.7071,4.7073,4.7074,0,4.7004,4.7013,4.7073,4.7063,4.7071,4.7097,4.7106,4.7123,4.7122,4.7113,4.7119,4.7092,4.7123,4.7077,4.7118,4.7083,4.7091,4.7087,4.7089,4.7089,4.7037,4.7112,4.7241,4.7252,4.7091,4.709,4.7088,0,4.7096,4.7123,4.7161,4.7164,4.7155,4.7174,4.7171,4.7168,4.7176,4.7185,4.719,4.7202,4.7208,4.7217,4.7194,4.7163,4.7238,4.719,4.723,4.723,4.7245,4.7244,4.7376,4.7255,4.7254,4.7254,4.7254,0,4.7197,4.7234,4.7202,4.7225,4.7266,4.7237,4.7277,4.727,4.7267,4.7288,4.7253,4.7273,4.7243,4.726,4.7242,4.7278,4.7282,4.7274,4.7268,4.7276,4.7277,4.7279,4.7272,4.7257,4.7257,4.7256,4.7256,0,4.7305,4.7285,4.7324,4.7312,4.731,4.734,4.733,4.735,4.7337,4.7364,4.7369,4.7348,4.7367,4.7345,4.7362,4.735,4.7398,4.7385,4.7398,4.7393,4.7433,4.7429,4.7569,4.7585,4.7456,4.7457,4.7458,0,4.737,4.7397,4.7388,4.7399,4.7399,4.7418,4.7426,4.7399,4.7409,4.741,4.7431,4.7446,4.7457,4.7488,4.7475,4.7487,4.7473,4.7521,4.7474,4.7481,4.7471,4.7469,4.7471,4.753,4.7532,4.7533,4.7534,0,4.7486,4.7475,4.7488,4.7498,4.751,4.7517,4.7521,4.7532,4.7503,4.7517,4.7535,4.7543,4.756,4.7575,4.7584,4.7581,4.7552,4.7549,4.7558,4.7565,4.7571,4.7566,4.7422,4.7545,4.7544,4.7543,4.7543,4.7542,4.7573,4.7594,4.7591,4.7607,4.7608,4.7612,4.7631,4.762,4.7634,4.7646,4.7629,4.7651,4.7649,4.7658,4.7658,4.7675,4.7654,4.7668,4.7671,4.7675,4.768,4.757,4.7677,4.7676,4.7676,4.7676,4.7675,0,4.7685,4.7681,4.7696,4.7703,4.7715,4.7688,4.7691,4.7703,4.7723,4.7724,4.7735,4.7755,4.777,4.7758,4.777,4.7786,4.7773,4.779,4.7787,4.7786,4.7699,4.7688,4.78,4.78,4.7799,4.7799,4.7799,4.7799,4.7745,4.778,4.7768,4.7803,4.7798,4.7819,4.7823,4.7827,4.7827,4.7851,4.7863,4.7855,4.785,4.7862,4.7874,4.787,4.7875,4.7896,4.7887,4.7805,4.7793,4.7781,4.7771,4.7898,4.7898,4.7973,4.7974,4.7974]}]]